Weather History for Clinton, OK

Change the Weather History Date:

Monday, December 31, 2012

  Actual Average (KCSM) Record (KCSM)
Temperature  
Mean Temperature 34 °F -  
Max Temperature 37 °F 46 °F 73 °F (2011)
Min Temperature 30 °F 27 °F 19 °F (2000)
Degree Days  
Heating Degree Days 32    
Moisture  
Dew Point 31 °F    
Average Humidity 92    
Maximum Humidity 100    
Minimum Humidity 70    
Precipitation  
Precipitation 0.17 in - - ()
Sea Level Pressure  
Sea Level Pressure 30.01 in    
Wind  
Wind Speed 10 mph (SSW)    
Max Wind Speed 18 mph    
Max Gust Speed 22 mph    
Visibility 6 miles    
Events Fog , Rain    
Averages and records for this station are not official NWS values.
T = Trace of Precipitation, MM = Missing Value Source: NWS Daily Summary

Daily Weather History Graph

Daily Weather History Graph

Search for Another Location

Airport:

Trip Planner

Search our weather history database for the weather conditions in past years. The results will help you decide how hot, cold, wet, or windy it might be!

Date:

Astronomy

Dec. 31, 2012 Rise Set
Actual Time 7:45 AM CST 5:33 PM CST
Civil Twilight 7:16 AM CST 6:01 PM CST
Nautical Twilight 6:44 AM CST 6:33 PM CST
Astronomical Twilight 6:13 AM CST 7:04 PM CST
Moon 8:57 PM CST (12/31) 9:34 AM CST (12/31)
Length of Visible Light 10h 44m
Length of Day
9h 48m
Waning Gibbous, 90% of the Moon is Illuminated
Dec 31
Waning Gibbous
Jan 4
Last Quarter
Jan 11
New
Jan 18
First Quarter
Jan 26
Full

Hourly Weather History & Observations

Time (CST) Temp. Windchill Dew Point Humidity Pressure Visibility Wind Dir Wind Speed Gust Speed Precip Events Conditions
12:15 AM 35.6 °F 26.2 °F 26.6 °F 70% 30.09 in 10.0 mi South 15.0 mph - N/A   Clear
12:35 AM 33.8 °F 23.5 °F 26.6 °F 75% 30.08 in 10.0 mi South 16.1 mph - N/A   Clear
12:55 AM 33.8 °F 23.9 °F 26.6 °F 75% 30.07 in 10.0 mi South 15.0 mph 19.6 mph N/A   Clear
1:15 AM 33.8 °F 23.2 °F 26.6 °F 75% 30.05 in 10.0 mi South 17.3 mph - N/A   Clear
1:35 AM 33.8 °F 24.3 °F 26.6 °F 75% 30.07 in 10.0 mi South 13.8 mph - N/A   Clear
1:55 AM 33.8 °F 26.4 °F 26.6 °F 75% 30.06 in 10.0 mi South 9.2 mph - N/A   Clear
2:15 AM 33.8 °F 26.4 °F 26.6 °F 75% 30.06 in 10.0 mi South 9.2 mph - N/A   Clear
2:35 AM 33.8 °F 25.8 °F 28.4 °F 81% 30.06 in 10.0 mi South 10.4 mph - N/A   Mostly Cloudy
3:15 AM 33.8 °F 27.0 °F 28.4 °F 81% 30.07 in 10.0 mi South 8.1 mph - N/A   Overcast
3:35 AM 33.8 °F 25.8 °F 28.4 °F 81% 30.06 in 10.0 mi South 10.4 mph - N/A   Overcast
4:15 AM 33.8 °F 25.8 °F 30.2 °F 87% 30.06 in 10.0 mi South 10.4 mph - N/A   Light Drizzle
4:35 AM 33.8 °F 27.0 °F 32.0 °F 93% 30.05 in 5.0 mi South 8.1 mph - N/A Rain Rain
4:55 AM 32.0 °F 24.8 °F 32.0 °F 100% 30.03 in 4.0 mi South 8.1 mph - 0.01 in Rain Light Rain
5:15 AM 32.0 °F 25.6 °F 32.0 °F 100% 30.01 in 3.0 mi SSE 6.9 mph - 0.02 in Rain Light Rain
5:35 AM 32.0 °F 24.8 °F 32.0 °F 100% 30.00 in 3.0 mi SSE 8.1 mph - 0.05 in Rain Light Rain
5:55 AM 32.0 °F 24.2 °F 32.0 °F 100% 29.98 in 3.0 mi SSE 9.2 mph - 0.07 in Rain Light Rain
6:15 AM 32.0 °F 24.2 °F 32.0 °F 100% 29.98 in 2.5 mi SSE 9.2 mph - 0.05 in Rain Rain
7:15 AM 32.0 °F 24.2 °F 32.0 °F 100% 29.99 in 3.0 mi SSE 9.2 mph - 0.02 in Rain Light Rain
7:35 AM 32.0 °F 24.8 °F 32.0 °F 100% 29.99 in 3.0 mi SSE 8.1 mph - 0.04 in Rain Light Rain
7:55 AM 32.0 °F 26.4 °F 32.0 °F 100% 30.00 in 4.0 mi South 5.8 mph - 0.04 in   Overcast
8:15 AM 32.0 °F 28.7 °F 32.0 °F 100% 30.00 in 2.5 mi South 3.5 mph - N/A Rain Light Rain
8:35 AM 32.0 °F 26.4 °F 32.0 °F 100% 30.00 in 2.0 mi SSE 5.8 mph - N/A   Overcast
8:55 AM 32.0 °F 28.7 °F 32.0 °F 100% 30.00 in 1.2 mi SE 3.5 mph - N/A   Overcast
9:15 AM 33.8 °F 29.6 °F 32.0 °F 93% 29.99 in 0.8 mi ESE 4.6 mph - N/A Rain Light Rain
9:35 AM 33.8 °F 30.8 °F 32.0 °F 93% 30.00 in 1.0 mi SE 3.5 mph - N/A   Overcast
10:15 AM 33.8 °F 28.6 °F 32.0 °F 93% 30.01 in 1.0 mi SE 5.8 mph - N/A   Overcast
10:35 AM 33.8 °F 28.6 °F 32.0 °F 93% 30.00 in 1.2 mi SSE 5.8 mph - N/A   Overcast
10:55 AM 33.8 °F 29.6 °F 32.0 °F 93% 30.01 in 1.5 mi SE 4.6 mph - N/A   Overcast
11:15 AM 33.8 °F 28.6 °F 32.0 °F 93% 30.00 in 1.8 mi SSE 5.8 mph - N/A   Overcast
11:35 AM 33.8 °F 27.7 °F 32.0 °F 93% 30.00 in 1.5 mi South 6.9 mph - N/A   Overcast
11:55 AM 33.8 °F 27.7 °F 32.0 °F 93% 29.98 in 1.5 mi SSE 6.9 mph - N/A   Overcast
12:15 PM 33.8 °F 27.0 °F 32.0 °F 93% 29.97 in 1.5 mi SSE 8.1 mph - N/A   Overcast
12:35 PM 33.8 °F 27.0 °F 32.0 °F 93% 29.95 in 0.8 mi SSE 8.1 mph - N/A   Overcast
12:55 PM 33.8 °F 27.7 °F 32.0 °F 93% 29.94 in 0.5 mi South 6.9 mph - N/A Fog Fog
1:35 PM 33.8 °F 28.6 °F 33.8 °F 100% 29.94 in 0.2 mi South 5.8 mph - N/A Fog Fog
1:55 PM 35.6 °F 32.8 °F 33.8 °F 93% 29.93 in 0.2 mi SSW 3.5 mph - N/A Fog Fog
2:15 PM 35.6 °F 31.7 °F 33.8 °F 93% 29.93 in 0.2 mi South 4.6 mph - N/A Fog Fog
2:35 PM 35.6 °F 29.9 °F 33.8 °F 93% 29.94 in 0.2 mi WSW 6.9 mph - N/A Fog Fog
2:55 PM 35.6 °F 29.9 °F 33.8 °F 93% 29.94 in 1.5 mi SW 6.9 mph - N/A   Overcast
3:15 PM 35.6 °F 29.2 °F 35.6 °F 100% 29.94 in 1.5 mi SW 8.1 mph - N/A   Overcast
3:35 PM 35.6 °F 30.7 °F 35.6 °F 100% 29.94 in 2.0 mi SW 5.8 mph - N/A   Overcast
4:15 PM 37.4 °F 32.8 °F 35.6 °F 93% 29.95 in 3.0 mi SW 5.8 mph - N/A   Overcast
4:35 PM 37.4 °F 32.1 °F 35.6 °F 93% 29.95 in 4.0 mi SW 6.9 mph - N/A   Overcast
4:55 PM 37.4 °F 33.8 °F 35.6 °F 93% 29.96 in 4.0 mi SW 4.6 mph - N/A   Overcast
5:15 PM 37.4 °F 32.1 °F 35.6 °F 93% 29.96 in 4.0 mi WSW 6.9 mph - N/A   Overcast
5:35 PM 37.4 °F 33.8 °F 35.6 °F 93% 29.96 in 3.0 mi West 4.6 mph - N/A   Overcast
5:55 PM 35.6 °F 30.7 °F 35.6 °F 100% 29.98 in 4.0 mi West 5.8 mph - N/A   Overcast
6:15 PM 35.6 °F 28.0 °F 32.0 °F 87% 29.99 in 10.0 mi WNW 10.4 mph 18.4 mph N/A   Overcast
6:35 PM 33.8 °F 26.4 °F 32.0 °F 93% 30.00 in 10.0 mi WNW 9.2 mph - N/A   Scattered Clouds
6:55 PM 33.8 °F 26.4 °F 32.0 °F 93% 30.01 in 10.0 mi WNW 9.2 mph - N/A   Scattered Clouds
7:15 PM 33.8 °F 27.0 °F 32.0 °F 93% 30.03 in 10.0 mi West 8.1 mph - N/A   Mostly Cloudy
7:35 PM 33.8 °F 23.9 °F 32.0 °F 93% 30.04 in 10.0 mi West 15.0 mph - N/A   Overcast
7:55 PM 33.8 °F 25.8 °F 32.0 °F 93% 30.05 in 10.0 mi West 10.4 mph - N/A   Overcast
8:15 PM 33.8 °F 23.5 °F 32.0 °F 93% 30.06 in 10.0 mi WNW 16.1 mph 21.9 mph N/A   Overcast
8:35 PM 32.0 °F 21.2 °F 32.0 °F 100% 30.07 in 10.0 mi NW 16.1 mph 20.7 mph N/A   Overcast
8:55 PM 32.0 °F 20.8 °F 30.2 °F 93% 30.08 in 7.0 mi WNW 17.3 mph - N/A   Overcast
9:15 PM 32.0 °F 21.2 °F 30.2 °F 93% 30.07 in 10.0 mi NNW 16.1 mph 21.9 mph N/A   Overcast
9:35 PM 32.0 °F 21.6 °F 30.2 °F 93% 30.07 in 10.0 mi NNW 15.0 mph 19.6 mph N/A   Overcast
9:55 PM 32.0 °F 20.8 °F 28.4 °F 87% 30.07 in 10.0 mi NNW 17.3 mph - N/A   Overcast
10:15 PM 32.0 °F 20.8 °F 28.4 °F 87% 30.07 in 10.0 mi NNW 17.3 mph - N/A   Overcast
10:35 PM 30.2 °F 18.1 °F 28.4 °F 93% 30.07 in 7.0 mi NNW 18.4 mph - N/A   Overcast
10:55 PM 30.2 °F 20.8 °F 28.4 °F 93% 30.07 in 10.0 mi North 11.5 mph - N/A   Overcast
11:15 PM 30.2 °F 20.8 °F 28.4 °F 93% 30.10 in 10.0 mi NNW 11.5 mph 19.6 mph N/A   Overcast
11:35 PM 30.2 °F 19.3 °F 26.6 °F 86% 30.09 in 10.0 mi NNW 15.0 mph - N/A   Overcast
11:55 PM 30.2 °F 18.5 °F 26.6 °F 86% 30.10 in 10.0 mi NNW 17.3 mph 20.7 mph N/A   Overcast